Flag for Germany Weather past 2 weeks in Bietigheim-Bissingen, Baden-Württemberg, Germany

Now
69 °F

Passing clouds.


Feels Like: 69 °F
Forecast: 68 / 83 °F
Wind: 1 mph from Northeast

Location: Stuttgart-Echterdingen

Current Time: Jul 5, 2015 at 7:17:36 AM

Latest Report: Jul 5, 2015 at 7:00 AM


Visibility: 19 mi

Pressure: 30.06 "Hg

Humidity: 87%

Dew point: 65 °F

Location of Bietigheim-BissingenLocation

Historic Weather in Bietigheim-Bissingen — Graph

°F

Bietigheim-Bissingen temperature yesterday

Maximum temperature yesterday: 96 °F (at 6:00 PM)
Minimum temperature yesterday: 65 °F (at 6:00 AM)
Average temperature yesterday: 81 °F

Past Weeks' High & Low Weather Summary

 TemperatureHumidityPressure
High96 °F (Jul 4, 6:00 PM)97% (Jun 24, 7:00 AM)30.24 "Hg (Jun 24, 7:00 AM)
Low46 °F (Jun 24, 6:00 AM)23% (Jul 4, 6:00 PM)29.74 "Hg (Jun 22, 9:00 PM)
Average67 °F67%30.09 "Hg
* Reported Jun 20 4:00 AM — Jul 5 4:00 AM, Bietigheim-Bissingen, Weather by CustomWeather, © 2015

Note: Actual official high and low records may vary slightly from our data, if they occured in-between our weather recording intervals... More about our weather records

Advertising

Bietigheim-Bissingen weather history for previous 24 hours

 ConditionsComfort  
Time TempWeatherWind HumidityBarometerVisibility
4:00 AM
Sun, Jul 5
68 °FPassing clouds.No wind82%30.08 "Hg16 mi
3:00 AM69 °FPassing clouds.1 mph78%30.08 "Hg17 mi
2:00 AM72 °FPassing clouds.1 mph73%30.08 "Hg19 mi
1:00 AM74 °FPassing clouds.1 mph69%30.08 "Hg22 mi
12:00 AM77 °FPassing clouds.2 mph60%30.08 "Hg25 mi
10:00 PM
Sat, Jul 4
82 °FPassing clouds.1 mph51%30.07 "Hg28 mi
9:00 PM89 °FScattered clouds.1 mph34%30.06 "Hg34 mi
8:00 PM92 °FScattered clouds.2 mph28%30.04 "Hg28 mi
7:00 PM94 °FScattered clouds.5 mph25%30.03 "Hg25 mi
6:00 PM96 °FPartly sunny.N/A23%30.03 "Hg22 mi
4:00 PM94 °FPartly sunny.1 mph37%30.05 "Hg22 mi
3:00 PM94 °FPartly sunny.3 mph38%30.05 "Hg22 mi
2:00 PM93 °FPartly sunny.3 mph40%30.06 "Hg19 mi
1:00 PM91 °FPartly sunny.3 mph46%30.08 "Hg19 mi
12:00 PM88 °FScattered clouds.1 mph44%30.09 "Hg19 mi
11:00 AM85 °FScattered clouds.2 mph51%30.11 "Hg19 mi
10:00 AM81 °FPassing clouds.2 mph54%30.12 "Hg19 mi
9:00 AM77 °FPassing clouds.2 mph70%30.13 "Hg19 mi
8:00 AM72 °FPassing clouds.1 mph82%30.14 "Hg19 mi
7:00 AM66 °FPassing clouds.1 mph90%30.16 "Hg19 mi
Weather by CustomWeather, © 2015

See weather overviewHow to use our weather pages